Tracking 18843 objects as of 21-November-2017
HD Live streaming from Space Station
objects crossing your sky now

USA 113

Track USA 113 now!
USA 113 is classified as:


NORAD ID: 23628
Int'l Code: 1995-038A
Perigee: 35,785.8 km
Apogee: 35,802.7 km
Inclination: 10.4 °
Period: 1,436.1 minutes
Semi major axis: 42165 km
RCS: Unknown
Launch date: July 31, 1995
Source: United States (US)
Launch site: AIR FORCE EASTERN TEST RANGE (AFETR)

Super High Frequency (SHF) for U.S. government and military; sophisticated survivability enhancement; worldwide, longhaul coverage; X-band.
aabbcc
Your satellite tracking list
Your tracking list is empty




NASA's NSSDC Master Catalog

Two Line Element Set (TLE):
1 23628U 95038A   17286.75441716 0.00000000  00000-0  00000-0 0    08
2 23628  10.4426  37.7639 0002000 131.0024 229.1601  1.00270000    09
Source of the keplerian elements: McCants